{"data":{"norad_id":62129,"epoch":"2026-05-25T00:52:14.829600Z","epoch_age_seconds":65692,"freshness":"FRESH","line1":"1 62129U 24222R   26145.03628275  .00018100  00000+0  66526-3 0  9990","line2":"2 62129  43.0025  61.6886 0002278 256.9887 103.0711 15.27599315 84467","mean_motion":15.27599315,"eccentricity":0.0002278,"inclination_deg":43.0025,"raan_deg":61.6886,"arg_perigee_deg":256.9887,"mean_anomaly_deg":103.0711,"bstar":0.00066526,"rev_number":8446,"period_min":94.265556802767,"perigee_km":481.42829557276,"apogee_km":484.55422560828,"semimajor_km":6861.1282605905,"source":"CELESTRAK","updated_at":"2026-05-25T13:38:19.565817Z"}}